TimeEST,TemperatureF,Dew PointF,Humidity,Sea Level PressureIn,VisibilityMPH,Wind Direction,Wind SpeedMPH,Gust SpeedMPH,PrecipitationIn,Events,Conditions,WindDirDegrees,DateUTC
12:15 AM,41.0,35.6,81,29.92,10.0,NNW,10.4,20.7,N/A,,Overcast,330,2013-03-07 05:15:00
12:35 AM,41.0,33.8,76,29.93,10.0,NNW,10.4,20.7,N/A,,Overcast,330,2013-03-07 05:35:00
12:55 AM,41.0,33.8,76,29.93,10.0,NNW,10.4,24.2,N/A,,Overcast,330,2013-03-07 05:55:00
1:15 AM,41.0,33.8,76,29.93,10.0,NNW,10.4,18.4,N/A,,Overcast,340,2013-03-07 06:15:00
1:35 AM,42.8,32.0,66,29.94,10.0,NNW,11.5,18.4,N/A,,Overcast,340,2013-03-07 06:35:00
1:55 AM,42.8,32.0,66,29.94,10.0,NNW,11.5,23.0,N/A,,Overcast,340,2013-03-07 06:55:00
2:15 AM,42.8,32.0,66,29.94,10.0,North,13.8,18.4,N/A,,Overcast,350,2013-03-07 07:15:00
2:35 AM,42.8,32.0,66,29.94,10.0,NNW,10.4,24.2,N/A,,Mostly Cloudy,340,2013-03-07 07:35:00
2:55 AM,41.0,30.2,65,29.94,10.0,NNW,12.7,18.4,N/A,,Scattered Clouds,330,2013-03-07 07:55:00
3:15 AM,41.0,32.0,70,29.95,10.0,NNW,9.2,-,N/A,,Clear,330,2013-03-07 08:15:00
3:35 AM,39.2,32.0,75,29.97,10.0,NW,8.1,-,N/A,,Clear,310,2013-03-07 08:35:00
3:55 AM,39.2,32.0,75,29.98,10.0,NNW,8.1,-,N/A,,Mostly Cloudy,330,2013-03-07 08:55:00
4:15 AM,39.2,32.0,75,29.99,10.0,NW,8.1,-,N/A,,Overcast,320,2013-03-07 09:15:00
4:35 AM,41.0,32.0,70,30.00,10.0,NNW,9.2,-,N/A,,Overcast,330,2013-03-07 09:35:00
4:55 AM,41.0,32.0,70,30.00,10.0,NNW,8.1,-,N/A,,Overcast,330,2013-03-07 09:55:00
5:15 AM,39.2,32.0,75,30.01,10.0,NW,6.9,-,N/A,,Mostly Cloudy,320,2013-03-07 10:15:00
5:35 AM,39.2,30.2,70,30.01,10.0,NNW,8.1,-,N/A,,Mostly Cloudy,330,2013-03-07 10:35:00
5:55 AM,39.2,30.2,70,30.02,10.0,NNW,6.9,-,N/A,,Scattered Clouds,330,2013-03-07 10:55:00
6:15 AM,39.2,30.2,70,30.03,10.0,NNW,6.9,-,N/A,,Mostly Cloudy,330,2013-03-07 11:15:00
6:35 AM,39.2,30.2,70,30.03,10.0,NNW,6.9,-,N/A,,Scattered Clouds,340,2013-03-07 11:35:00
6:55 AM,39.2,30.2,70,30.04,10.0,NNW,9.2,16.1,N/A,,Clear,330,2013-03-07 11:55:00
7:15 AM,39.2,30.2,70,30.05,10.0,NNW,9.2,-,N/A,,Clear,340,2013-03-07 12:15:00
7:35 AM,41.0,30.2,65,30.06,10.0,NNW,8.1,-,N/A,,Clear,330,2013-03-07 12:35:00
7:55 AM,42.8,30.2,61,30.06,10.0,North,9.2,18.4,N/A,,Clear,350,2013-03-07 12:55:00
8:15 AM,42.8,30.2,61,30.07,10.0,North,10.4,16.1,N/A,,Clear,350,2013-03-07 13:15:00
8:35 AM,44.6,30.2,57,30.08,10.0,North,15.0,21.9,N/A,,Clear,360,2013-03-07 13:35:00
8:55 AM,44.6,30.2,57,30.08,10.0,NNW,9.2,17.3,N/A,,Clear,340,2013-03-07 13:55:00
9:15 AM,44.6,30.2,57,30.09,10.0,NNW,11.5,20.7,N/A,,Clear,330,2013-03-07 14:15:00
9:35 AM,46.4,30.2,53,30.10,10.0,North,17.3,23.0,N/A,,Clear,350,2013-03-07 14:35:00
9:55 AM,46.4,30.2,53,30.10,10.0,NNW,13.8,20.7,N/A,,Clear,340,2013-03-07 14:55:00
10:15 AM,46.4,28.4,50,30.10,10.0,NNW,17.3,24.2,N/A,,Clear,340,2013-03-07 15:15:00
10:35 AM,48.2,28.4,46,30.10,10.0,North,18.4,26.5,N/A,,Clear,360,2013-03-07 15:35:00
10:55 AM,48.2,28.4,46,30.10,10.0,NNW,11.5,28.8,N/A,,Clear,330,2013-03-07 15:55:00
11:15 AM,48.2,28.4,46,30.10,10.0,NNW,13.8,24.2,N/A,,Scattered Clouds,340,2013-03-07 16:15:00
11:35 AM,48.2,28.4,46,30.10,10.0,NNW,16.1,23.0,N/A,,Mostly Cloudy,340,2013-03-07 16:35:00
11:55 AM,48.2,30.2,50,30.10,10.0,NNW,13.8,23.0,N/A,,Mostly Cloudy,330,2013-03-07 16:55:00
12:15 PM,50.0,30.2,47,30.09,10.0,NNW,10.4,21.9,N/A,,Mostly Cloudy,340,2013-03-07 17:15:00
12:35 PM,51.8,30.2,44,30.08,10.0,NW,17.3,26.5,N/A,,Mostly Cloudy,310,2013-03-07 17:35:00
12:55 PM,51.8,30.2,44,30.07,10.0,NNW,11.5,23.0,N/A,,Scattered Clouds,340,2013-03-07 17:55:00
1:15 PM,50.0,28.4,43,30.06,10.0,NNW,12.7,23.0,N/A,,Scattered Clouds,330,2013-03-07 18:15:00
1:35 PM,51.8,30.2,44,30.06,10.0,NW,13.8,21.9,N/A,,Scattered Clouds,310,2013-03-07 18:35:00
1:55 PM,51.8,28.4,41,30.05,10.0,North,13.8,21.9,N/A,,Scattered Clouds,350,2013-03-07 18:55:00
2:15 PM,53.6,30.2,41,30.05,10.0,NNW,10.4,23.0,N/A,,Scattered Clouds,330,2013-03-07 19:15:00
2:35 PM,53.6,28.4,38,30.05,10.0,NNW,12.7,26.5,N/A,,Scattered Clouds,330,2013-03-07 19:35:00
2:55 PM,53.6,28.4,38,30.05,10.0,NNW,10.4,19.6,N/A,,Scattered Clouds,330,2013-03-07 19:55:00
3:15 PM,51.8,28.4,41,30.06,10.0,WNW,15.0,24.2,N/A,,Clear,300,2013-03-07 20:15:00
3:35 PM,51.8,28.4,41,30.07,10.0,NNW,12.7,20.7,N/A,,Clear,330,2013-03-07 20:35:00
3:55 PM,51.8,28.4,41,30.07,10.0,North,13.8,19.6,N/A,,Scattered Clouds,350,2013-03-07 20:55:00
4:15 PM,51.8,26.6,38,30.07,10.0,NNW,10.4,24.2,N/A,,Scattered Clouds,330,2013-03-07 21:15:00
4:35 PM,51.8,26.6,38,30.08,10.0,NNW,10.4,23.0,N/A,,Mostly Cloudy,330,2013-03-07 21:35:00
4:55 PM,48.2,26.6,43,30.09,10.0,North,10.4,20.7,N/A,,Mostly Cloudy,350,2013-03-07 21:55:00
5:15 PM,48.2,28.4,46,30.10,10.0,NNW,5.8,-,N/A,,Scattered Clouds,340,2013-03-07 22:15:00
5:35 PM,48.2,26.6,43,30.10,10.0,NNW,5.8,-,N/A,,Mostly Cloudy,330,2013-03-07 22:35:00
5:55 PM,46.4,26.6,46,30.11,10.0,NNW,8.1,-,N/A,,Scattered Clouds,330,2013-03-07 22:55:00
6:15 PM,46.4,26.6,46,30.12,10.0,NNW,6.9,-,N/A,,Scattered Clouds,330,2013-03-07 23:15:00
6:35 PM,46.4,26.6,46,30.14,10.0,NW,6.9,-,N/A,,Clear,320,2013-03-07 23:35:00
6:55 PM,44.6,26.6,49,30.15,10.0,NNW,3.5,-,N/A,,Scattered Clouds,330,2013-03-07 23:55:00
8:35 PM,42.8,26.6,53,30.16,10.0,NW,6.9,-,N/A,,Mostly Cloudy,310,2013-03-08 01:35:00
8:55 PM,42.8,26.6,53,30.16,10.0,NW,5.8,-,N/A,,Scattered Clouds,310,2013-03-08 01:55:00
9:15 PM,42.8,26.6,53,30.16,10.0,NW,6.9,-,N/A,,Scattered Clouds,310,2013-03-08 02:15:00
9:35 PM,41.0,28.4,61,30.16,10.0,WNW,5.8,-,N/A,,Scattered Clouds,290,2013-03-08 02:35:00
9:55 PM,41.0,28.4,61,30.16,10.0,WNW,9.2,-,N/A,,Scattered Clouds,300,2013-03-08 02:55:00
10:15 PM,41.0,28.4,61,30.16,10.0,NW,9.2,-,N/A,,Scattered Clouds,310,2013-03-08 03:15:00
10:35 PM,41.0,26.6,57,30.16,10.0,NW,8.1,-,N/A,,Mostly Cloudy,310,2013-03-08 03:35:00
10:55 PM,39.2,28.4,65,30.16,10.0,WNW,9.2,-,N/A,,Scattered Clouds,300,2013-03-08 03:55:00
11:15 PM,39.2,26.6,61,30.16,10.0,WNW,8.1,-,N/A,,Clear,300,2013-03-08 04:15:00
11:35 PM,39.2,26.6,61,30.16,10.0,WNW,8.1,-,N/A,,Clear,300,2013-03-08 04:35:00
11:55 PM,37.4,28.4,70,30.16,10.0,WNW,5.8,-,N/A,,Clear,300,2013-03-08 04:55:00